Terminal Aerodrome Forecast
Issued by NWS

Home | Current Version | Previous Version | Graphics & Text | Print | Product List | Glossary On
Versions: 1 2 3 4 5 6 7 8 9 10 11 12 13 14 15 16 17 18 19 20 21 22 23 24 25 26 27 28
000
FTUS43 KABR 280500
TAFATY
TAF
KATY 280531Z 2806/2906 16010KT P6SM FEW100
     FM281700 20007KT P6SM BKN060
     FM290300 04005KT P6SM OVC020
      AMD NOT SKED=

USA.gov is the U.S. government's official web portal to all federal, state and local government web resources and services.